Regional Weather Roundup
Issued by NWS

Home | Current Version | Previous Version | Graphics & Text | Print | Product List | Glossary On
Versions: 1 2 3 4 5 6 7 8 9 10 11 12 13 14 15 16 17 18 19 20 21 22 23 24 25 26 27 28 29 30 31 32 33 34 35 36 37 38 39 40 41 42 43 44 45 46 47 48 49
000
ASUS43 KDMX 241407
RWRIA

WEATHER ROUNDUP FOR IOWA
NATIONAL WEATHER SERVICE DES MOINES IA
900 AM CDT FRI APR 24 2015

NOTE: "FAIR" INDICATES FEW OR NO CLOUDS BELOW 12,000 FEET WITH NO
SIGNIFICANT WEATHER AND/OR OBSTRUCTIONS TO VISIBILITY.

* - THESE STATIONS ARE NOT NWS STATIONS...THUS NOT UNDER NWS
QUALITY CONTROL.  THEY ALSO DO NOT REPORT WEATHER SUCH
AS PRECIPITATION OR FOG.

IAZ001>003-012>014-020>022-031>034-043>046-241500-
   NORTHWEST IOWA

CITY           SKY/WX    TMP DP  RH WIND       PRES   REMARKS
CARROLL *      CLOUDY    48  41  76 SE14      29.80S
CHEROKEE *     CLOUDY    50  39  66 SE14      29.77F
DENISON *      CLOUDY    50  45  81 SE9       29.76F HAZE
LE MARS *      CLOUDY    54  39  58 SE18      29.74F
ORANGE CITY *  CLOUDY    50  39  66 SE12G18   29.74F
SHELDON *      CLOUDY    48  41  76 SE18      29.75F
SIOUX CITY     CLOUDY    56  38  50 S16       29.75S
SPENCER        CLOUDY    48  37  65 SE16      29.80S
STORM LAKE *   CLOUDY    48  41  76 SE16      29.79R
$$

IAZ055>058-069>071-079>083-090>094-241500-
   SOUTHWEST IOWA

CITY           SKY/WX    TMP DP  RH WIND       PRES   REMARKS
ATLANTIC *     CLOUDY    55  39  54 S12G22    29.79F
AUDUBON *      LGT RAIN  52  39  62 SE9       29.80F
CLARINDA *     CLOUDY    55  41  58 S9        29.82F
COUNCIL BLFS * CLOUDY    55  45  67 S14G20    29.77F
CRESTON *      CLOUDY    54  37  54 S16       29.82S
HARLAN  *      RAIN      48  48 100 S13       29.81F VSB 1
LAMONI         MOSUNNY   57  36  45 SE17G25   29.81F
RED OAK *      CLOUDY    57  43  58 S18G24    29.79F
SHENANDOAH *   CLOUDY    57  43  58 S10G17    29.79F
$$

IAZ047>049-059>061-072>074-084-241500-
   CENTRAL IOWA

CITY           SKY/WX    TMP DP  RH WIND       PRES   REMARKS
AMES           LGT RAIN  49  30  48 SE16G26   29.85F
ANKENY *       CLOUDY    52  30  43 SE14G20   29.85F
CHARITON *     CLOUDY    54  36  50 SE15G23   29.83F
DES MOINES     CLOUDY    54  31  41 SE10      29.85F
GRINNELL*      CLOUDY    50  25  37 E14G25    29.89F
KNOXVILLE *    CLOUDY    54  32  43 SE16      29.85F
MARSHALLTOWN   CLOUDY    48  29  47 SE20      29.88F
PELLA *        CLOUDY    52  36  54 SE14G20   29.89F
PERRY *        CLOUDY    52  34  50 SE14G20   29.82F
$$

IAZ004>006-015-016-023>025-035-036-241500-
   NORTH CENTRAL IOWA

CITY           SKY/WX    TMP DP  RH WIND       PRES   REMARKS
ALGONA *       LGT RAIN  46  36  66 SE15      29.83F
CLARION *      CLOUDY    46  34  61 SE18      29.85F
ESTHERVILLE    LGT RAIN  44  39  82 SE20      29.81F
MASON CITY     CLOUDY    43  34  70 SE9       29.92R
FOREST CITY *  CLOUDY    41  36  81 SE14      29.89F
IOWA FALLS *   DRIZZLE   46  32  57 SE14      29.89F
$$

IAZ007>011-017>019-026>030-037>042-050>054-066-241500-
   NORTHEAST IOWA

CITY           SKY/WX    TMP DP  RH WIND       PRES   REMARKS
CEDAR RAPIDS   CLOUDY    51  20  29 SE13      29.95F
CHARLES CITY * PTSUNNY   45  32  61 SE14G20   29.94S
CLINTON *      PTSUNNY   48  21  34 S12       30.05F
DECORAH *      CLOUDY    45  21  39 SE10      29.95F
DUBUQUE        CLOUDY    47  21  35 S13       30.01F
MONTICELLO *   CLOUDY    46  25  42 SE13      29.99F
OELWEIN *      CLOUDY    46  25  42 SE18G24   29.95F
WATERLOO       CLOUDY    46  28  49 SE12      29.92F
$$

IAZ064-065-067-068-078-241500-
   EAST CENTRAL IOWA

CITY           SKY/WX    TMP DP  RH WIND       PRES   REMARKS
DAVENPORT      CLOUDY    52  17  25 SE16      30.02F
IOWA CITY      CLOUDY    50  24  36 SE13      29.99F
MT. PLEASANT * CLOUDY    52  23  32 SE15      29.98F
MUSCATINE *    CLOUDY    52  21  30 SE14      29.99F
QUAD CITIES    CLOUDY    52  20  28 SE12      30.02F
$$

IAZ062-063-075>077-085>089-095>099-241500-
   SOUTHEAST IOWA

CITY           SKY/WX    TMP DP  RH WIND       PRES   REMARKS
BURLINGTON     CLOUDY    54  24  31 SE10      29.99F
FAIRFIELD *    CLOUDY    52  28  40 SE14      29.94F
FORT MADISON * CLOUDY    55  27  33 S12G18    29.99S
KEOKUK *       CLOUDY    55  32  41 S10       29.97R
OSKALOOSA *    CLOUDY    50  30  46 SE16      29.91F
CENTERVILLE *  SUNNY     55  37  50 SE15G21   29.89F
OTTUMWA        CLOUDY    51  34  52 SE14      29.90F
WASHINGTON *   CLOUDY    54  23  30 SE20      29.96F
$$

ABBREVIATIONS USED IN REMARKS
   TC - TEMPERATURES IN CELSIUS
  WCI - WIND CHILL INDEX
   HX - HEAT INDEX
  VSB - VISIBILITY
$$



USA.gov is the U.S. government's official web portal to all federal, state and local government web resources and services.